Tracking 30074 objects as of 13-Jan-2025
HD Live streaming from Space Station
objects crossing your sky now

COSMOS 1818 COOLANT

Track COSMOS 1818 COOLANT now!
10-day predictions


NORAD ID: 34174
Int'l Code: 1987-011E
Perigee: 753.6 km
Apogee: 779.7 km
Inclination: 65.0 °
Period: 100.0 minutes
Semi major axis: 7137 km
RCS: 0.0023 m2 (small)
Launch date: February 1, 1987
Source: Commonwealth of Independent States (former USSR) (CIS)
Launch site: TYURATAM MISSILE AND SPACE COMPLEX (TTMTR)

Note: This is SATELLITE DEBRIS
Your satellite tracking list
Your tracking list is empty




NASA's NSSDC Master Catalog

Two Line Element Set (TLE):
1 34174U 87011E   25010.30231946  .00002087  00000-0  69646-3 0  9993
2 34174  64.9995 211.7577 0018262 253.2791 280.3504 14.39684115268483
Source of the keplerian elements: AFSPC